#timestamp,LO_Frequency,Hit,StdDev 
1502809215.2,286047000.8,P,0.6
1502809235.0,286047001.1,N,0.6
1502809235.9,286047001.1,N,0.5
1502809255.8,286047000.6,N,0.5
1502809275.6,286047001.1,N,0.5
1502809295.5,286046998.3,Y,0.0
1502809315.3,286046999.0,P,1.1
1502809335.1,286046998.3,N,1.2
1502809355.9,286046996.5,N,1.7
1502809375.7,286046998.9,N,1.5
1502809395.5,286046999.2,N,1.4
1502809415.4,286046999.4,N,1.3
1502809435.2,286047000.9,N,1.4
1502809455.1,286046998.1,N,1.3
1502809456.0,286046998.1,N,1.3
1502809475.8,286046998.5,N,1.2
1502809495.6,286046998.2,N,1.2
1502809515.5,286047001.0,N,1.3
1502809535.3,286047001.1,N,1.4
1502809555.2,286046998.1,N,1.3
1502809575.9,286046998.5,N,1.3
1502809595.7,286046998.8,N,1.3
1502809615.6,286046998.1,N,1.2
1502809635.4,286047000.8,N,1.3
1502809655.3,286047001.1,N,1.3
1502809675.1,286047001.2,N,1.4
1502809676.0,286047001.2,N,1.4
1502809695.8,286046998.5,N,1.4
1502809715.7,286047000.8,N,1.4
1502809735.5,286047000.9,N,1.4
1502809755.3,286047001.1,N,1.4
1502809775.2,286047000.7,N,1.4
1502809795.0,286046998.5,N,1.4
1502809795.9,286046998.5,N,1.4
1502809815.8,286047001.0,N,1.4
1502809835.6,286047000.7,N,1.3
1502809855.4,286047000.6,N,1.4
1502809875.3,286047000.7,N,1.3
1502809895.1,286047000.7,N,1.2
1502809915.9,286046998.2,N,1.2
1502809935.7,286047000.0,N,1.2
1502809955.5,286047000.8,N,1.3
1502809975.4,286047001.0,N,1.3
1502809995.2,286047001.0,N,1.2
1502810015.1,286047000.6,N,1.2
1502810016.0,286047000.6,N,1.2
1502810035.8,286047000.5,N,1.1
1502810055.6,286047000.3,N,1.1
1502810075.5,286047000.4,N,1.1
1502810095.3,286047002.8,N,1.1
1502810115.2,286047002.5,N,1.1
1502810135.9,286046999.9,N,1.1
1502810155.7,286047000.2,N,1.0
1502810175.6,286047000.5,N,1.0
1502810195.4,286047002.7,N,1.1
1502810215.3,286047000.1,N,1.1
1502810235.1,286047002.7,N,1.1
1502810236.0,286047002.7,N,1.1
1502810255.8,286047002.6,N,1.2
1502810275.7,286047002.4,N,1.2
1502810295.5,286046999.8,N,1.2
1502810315.4,286047000.4,N,1.2
1502810335.2,286047000.1,N,1.2
1502810355.0,286047002.4,N,1.1
1502810355.9,286047002.4,N,1.1
1502810375.8,286046999.7,N,1.2
1502810395.6,286047011.9,Y,0.0
1502810415.5,286047002.8,P,0.9
1502810435.3,286047000.3,N,1.1
1502810455.1,286047001.0,N,0.9
1502810475.9,286046998.1,N,1.5
1502810495.7,286047000.7,N,1.4
1502810515.6,286047000.9,N,1.3
1502810535.4,286046998.1,N,1.5
1502810555.2,286047000.3,N,1.4
1502810575.1,286047000.5,N,1.3
1502810576.0,286047000.5,N,1.3
1502810595.8,286047000.4,N,1.2
1502810615.7,286047000.1,N,1.2
1502810635.5,286046999.9,N,1.1
1502810655.3,286046999.9,N,1.1
1502810675.2,286047002.7,N,1.2
1502810695.0,286047002.8,N,1.3
1502810695.9,286047002.8,N,1.4
1502810715.8,286047000.3,N,1.3
1502810735.6,286047000.5,N,1.3
1502810755.4,286047000.7,N,1.3
1502810775.3,286047000.4,N,1.2
1502810795.1,286047000.9,N,1.2
1502810815.9,286047000.2,N,1.2
1502810835.7,286047002.8,N,1.2
1502810855.5,286046999.8,N,1.2
1502810875.4,286047000.2,N,1.2
1502810895.2,286047000.4,N,1.2
1502810915.0,286047000.3,N,1.2
1502810915.9,286047000.3,N,1.1
1502810935.8,286047000.3,N,1.1
1502810955.6,286046999.9,N,1.1
1502810975.5,286047000.0,N,1.1
1502810995.3,286047000.2,N,1.1
1502811015.1,286047000.3,N,1.0
1502811035.9,286047000.1,N,1.0
1502811055.7,286047000.4,N,1.0
1502811075.6,286047000.8,N,0.9
1502811095.4,286047001.0,N,0.9
1502811115.2,286047002.8,Y,0.0
1502811135.1,286047000.9,P,0.1
1502811136.0,286047000.9,P,0.1
1502811155.8,286047000.9,P,0.1
1502811175.7,286047000.0,N,0.3
1502811195.5,286046999.9,N,0.4
1502811215.3,286047000.4,N,0.4
1502811235.2,286047000.4,N,0.4
1502811255.0,286047000.5,N,0.4
1502811255.9,286047000.5,N,0.3
1502811275.8,286047000.1,N,0.3
1502811295.6,286047000.3,N,0.3
1502811315.4,286047000.4,N,0.3
1502811335.3,286046999.9,N,0.3
1502811355.1,286047000.0,N,0.3
1502811375.9,286047000.0,N,0.3
1502811395.7,286046999.9,N,0.4
1502811415.5,286047000.4,N,0.3
1502811435.4,286047000.0,N,0.3
1502811455.2,286047001.1,Y,0.0
1502811475.1,286046998.5,P,0.9
1502811476.0,286046998.5,N,0.9
1502811495.8,286046998.2,N,0.8
1502811515.6,286046998.4,N,0.8
1502811535.5,286046998.3,N,0.7
1502811555.3,286046998.3,N,0.7
1502811575.2,286046998.8,N,0.6
1502811595.9,286046998.4,N,0.6
1502811615.7,286046998.8,N,0.6
1502811635.6,286046999.5,N,0.6
1502811655.4,286046997.0,Y,0.0
1502811675.3,286046998.3,P,0.2
1502811695.1,286046998.6,P,0.2
1502811696.0,286046998.6,P,0.2
1502811715.8,286046998.1,Y,0.0
1502811735.7,286047000.4,P,0.9
1502811755.5,286047001.0,N,1.0
1502811775.4,286047001.0,N,1.0
1502811795.2,286047000.7,N,0.9
1502811815.0,286047002.5,N,1.2
1502811815.9,286047002.5,N,1.2
1502811835.8,286047000.3,N,1.2
1502811855.6,286047001.2,N,1.1
1502811875.5,286046998.7,N,1.3
1502811895.3,286046998.8,N,1.3
1502811915.1,286046999.2,N,1.3
1502811935.9,286046997.3,N,1.5
1502811955.7,286046996.5,N,1.7
1502811975.6,286046996.7,N,1.9
1502811995.4,286046999.4,N,1.8
1502812015.2,286046999.4,N,1.7
1502812035.1,286046996.8,N,1.8
1502812036.0,286046996.8,N,1.9
1502812055.8,286046997.3,N,1.9
1502812075.7,286046998.0,N,1.8
1502812095.5,286046997.7,N,1.8
1502812115.3,286046995.0,N,2.0
1502812135.2,286046995.1,N,2.1
1502812155.0,286046998.0,N,2.0
1502812155.9,286046998.0,N,2.0
1502812175.8,286046998.0,N,2.0
1502812195.6,286046995.3,N,2.0
1502812215.4,286046998.0,N,2.0
1502812235.3,286046994.9,N,2.1
1502812255.1,286046995.6,N,2.1
1502812275.9,286046995.9,N,2.2
1502812295.7,286046996.3,N,2.1
1502812315.5,286046993.9,N,2.2
1502812335.4,286046994.0,N,2.2
1502812355.2,286046994.1,N,2.1
1502812375.1,286046994.5,N,1.9
1502812376.0,286046994.5,N,1.9
1502812395.8,286046991.8,Y,0.0
1502812415.7,286046995.4,P,0.7
1502812435.5,286046995.8,P,0.6
1502812455.3,286046995.5,P,0.6
1502812475.2,286046995.4,Y,0.0
1502812495.0,286047000.6,P,2.4
1502812495.9,286047000.6,N,2.2
1502812515.7,286047001.2,N,2.1
1502812535.6,286047000.9,N,2.0
1502812555.4,286047000.1,N,1.8
1502812575.3,286047002.3,N,1.9
1502812595.1,286047002.5,N,1.9
1502812615.8,286047000.5,N,1.8
1502812635.7,286047000.8,N,1.7
1502812655.5,286046998.8,N,1.7
1502812675.4,286046998.6,N,1.7
1502812695.2,286047000.8,N,1.7
1502812715.0,286046998.9,N,1.6
1502812715.9,286046998.9,N,1.6
1502812735.8,286046998.4,N,1.6
1502812755.6,286046999.3,N,1.6
1502812775.5,286046998.9,N,1.5
1502812795.3,286046998.8,N,1.5
